ATLAS 5 CENTAUR DEB, 46848

Orbit data source: Space-Track

ATLAS 5 CENTAUR DEB, 46848 is space debris in HEO originally from a launch on Wed, 17 Oct 2018 UTC launched from the Air Force Eastern Test Range (AFETR). Debris objects in space refer to the collection of defunct objects orbiting the Earth. Examples of debris include non-operational satellites, rocket bodies, and fragments generated from explosions, collisions, or faulty payload assembly.

Loading next visibility...
Identifier
46848, 2018-079DD
Orbit
HEO
Country
Flag of USUS
Related business
Flag of USUnited Launch Alliance/Lockheed Martin (US)
Manufacturer
ULA Decatur
Mission
Spacecraft
Bus & Motor
Unknown
Mass
Unknown
Launch date (UTC)
2018-10-17 (7 years ago)
Launch vehicle
Unknown
Launch site
Air Force Eastern Test Range (AFETR)
Object type
Payload
Rocket body
Debris
Shape & HBR
Unknown shape, 1.1 m
Radar Cross Section
Large (>1 m²)

Expand to show TLE details & history
Last TLE update: 15 hours ago

TLE from 15 hours ago
0 ATLAS 5 CENTAUR DEB
1 46848U 18079DD  25304.56060652 -.00000031  00000-0  00000+0 0  9993
2 46848  12.9892  68.7373 4464809 243.2253  64.7978  1.79118277 32697
Epoch: 2025-10-31T13:27Z
TLE epoch observation values (Epoch: 2025-10-31T13:27:16.403Z)
Latitude
Longitude
-173.24693°
Altitude
22,316.085 km
Speed
3.724 km/s
True Right ascension
04h 34m 41s
True Declination
0° 00' 00"
Sunlit
Object was in daylight at epoch
Visualization orbit readout
Latitude
Unknown
Longitude
Unknown
Altitude
Unknown
Speed
Unknown
Apparent Right ascension
Unknown
Apparent Declination
Unknown
Sunlit
N/A
Visualization observer readout
Local Sidereal Time
00:35:28
Azimuth
Unknown
Elevation
Unknown
Doppler factor
Unknown
Orbital elements
Apogee altitude
35,052.183 km
Perigee altitude
9,475.839 km
Semi-major axis
28,642.148 km
Eccentricity
0.44648
Inclination
12.9892°
RAAN
68.7373°
Arg. of periapsis
243.2253°
True anomaly
116.8565°
Mean anomaly
64.7978°
Eccentric anomaly
90.37871°
Mean motion
0.44775 °/min
Orbital period
804.02 mins
BSTAR
0
Loading maneuver chart data...
Computing Atmospheric mass density...

Documentation

Showing up to 5 results
|